This is the latest recevied weather packets stored in our database for station/object K3TLB-13. If no packets are shown the sender has not sent any weather packets the latest 10 day(s).
| Time | Temp. | Humidity | Pressure | Rain* | Wind** | Luminosity | Snow |
|---|---|---|---|---|---|---|---|
| 1778249932 | 14.44° C | 44% | 1014.8 hPa | 0 mm | - | - | - |
| 1778249632 | 14.44° C | 46% | 1014.8 hPa | 0 mm | - | - | - |
| 1778249332 | 14.44° C | 47% | 1014.7 hPa | 0 mm | - | - | - |
| 1778249033 | 13.89° C | 49% | 1014.7 hPa | 0 mm | - | - | - |
| 1778248732 | 13.89° C | 46% | 1014.9 hPa | 0 mm | - | - | - |
| 1778248432 | 13.89° C | 48% | 1014.8 hPa | 0 mm | - | - | - |
| 1778248132 | 13.89° C | 50% | 1014.9 hPa | 0 mm | - | - | - |
| 1778247833 | 13.33° C | 50% | 1015 hPa | 0 mm | - | - | - |
| 1778247532 | 13.33° C | 50% | 1014.9 hPa | 0 mm | - | - | - |
| 1778247308 | 12.78° C | 49% | 1015.1 hPa | 0 mm | - | - | - |
| 1778247232 | 12.78° C | 49% | 1015.1 hPa | 0 mm | - | - | - |
| 1778246932 | 12.78° C | 51% | 1015.1 hPa | 0 mm | - | - | - |
| 1778246632 | 12.78° C | 54% | 1015.2 hPa | 0 mm | - | - | - |
| 1778246333 | 12.22° C | 51% | 1015.2 hPa | 0 mm | - | - | - |
| 1778246203 | 11.67° C | 54% | 1015.3 hPa | 0 mm | - | - | - |
| 1778246032 | 11.67° C | 54% | 1015.3 hPa | 0 mm | - | - | - |
| 1778245732 | 11.67° C | 54% | 1015.4 hPa | 0 mm | - | - | - |
| 1778245555 | 11.11° C | 57% | 1015.3 hPa | 0 mm | - | - | - |
| 1778245432 | 11.11° C | 57% | 1015.3 hPa | 0 mm | - | - | - |
| 1778245234 | 10.56° C | 59% | 1015.4 hPa | 0 mm | - | - | - |
| 1778245132 | 10.56° C | 59% | 1015.4 hPa | 0 mm | - | - | - |
| 1778244926 | 10° C | 61% | 1015.4 hPa | 0 mm | - | - | - |
| 1778244832 | 10° C | 61% | 1015.4 hPa | 0 mm | - | - | - |
| 1778244619 | 10° C | 62% | 1015.5 hPa | 0 mm | - | - | - |
| 1778244532 | 10° C | 62% | 1015.5 hPa | 0 mm | - | - | - |
* Rain latest hour (hover to see other rain measurements)
** Current wind speed in m/s (hover to see current wind gust speed)